Wink, TX

5:54 PM CST on February 22, 2017 (GMT -0600)
Winkler County

Weather History for KINK - January, 2012

Change the Weather History Date:

Wednesday, January 25, 2012

  Actual Average Record
Temperature  
Mean Temperature 42 °F -  
Max Temperature 48 °F 63 °F 84 °F (1952)
Min Temperature 36 °F 30 °F 11 °F (1978)
Degree Days  
Heating Degree Days 22    
Moisture  
Dew Point 38 °F    
Average Humidity 90    
Maximum Humidity 100    
Minimum Humidity 66    
Precipitation  
Precipitation 0.32 in - - ()
Sea Level Pressure  
Sea Level Pressure 30.03 in    
Wind  
Wind Speed 13 mph (NNW)    
Max Wind Speed 23 mph    
Max Gust Speed 29 mph    
Visibility 8 miles    
Events Rain    
Averages and records for this station are not official NWS values.
T = Trace of Precipitation, MM = Missing Value Source: NWS Daily Summary

Daily Weather History Graph

Daily Weather History Graph

Search for Another Location

Airport or City:

Trip Planner

Search our weather history database for the weather conditions in past years. The results will help you decide how hot, cold, wet, or windy it might be!

Date:

Astronomy

Jan. 25, 2012 Rise Set
Actual Time 7:50 AM CST 6:20 PM CST
Civil Twilight 7:24 AM CST 6:46 PM CST
Nautical Twilight 6:54 AM CST 7:15 PM CST
Astronomical Twilight 6:25 AM CST 7:44 PM CST
Moon 9:02 AM CST (1/25) 9:01 PM CST (1/25)
Length of Visible Light 11h 22m
Length of Day
10h 30m
Waxing Crescent, 7% of the Moon is Illuminated
Jan 25
Waxing Crescent
Jan 30
First Quarter
Feb 7
Full
Feb 14
Last Quarter
Feb 21
New

Hourly Weather History & Observations

Time (CST) Temp. Windchill Dew Point Humidity Pressure Visibility Wind Dir Wind Speed Gust Speed Precip Events Conditions
12:53 AM 46.0 °F 40.6 °F 42.1 °F 86% 29.85 in 10.0 mi NNW 11.5 mph - N/A   Clear
1:30 AM 46.4 °F 42.4 °F 42.8 °F 87% 29.93 in 10.0 mi NNE 8.1 mph - N/A   Mostly Cloudy
1:53 AM 48.9 °F - 44.1 °F 83% 29.89 in 10.0 mi NNE 17.3 mph 24.2 mph N/A   Overcast
2:53 AM 48.0 °F - 43.0 °F 83% 29.90 in 10.0 mi North 17.3 mph 25.3 mph N/A   Overcast
3:14 AM 46.4 °F 38.3 °F 42.8 °F 87% 29.97 in 10.0 mi North 23.0 mph 27.6 mph N/A   Overcast
3:53 AM 46.9 °F - 41.0 °F 80% 29.93 in 10.0 mi North 15.0 mph 28.8 mph N/A   Overcast
4:53 AM 46.0 °F 38.3 °F 39.0 °F 76% 29.92 in 10.0 mi North 20.7 mph 25.3 mph N/A   Overcast
5:53 AM 44.1 °F 35.7 °F 37.0 °F 76% 29.97 in 10.0 mi North 20.7 mph 27.6 mph N/A   Overcast
6:53 AM 44.6 °F 36.9 °F 33.8 °F 66% 30.04 in 10.0 mi North 18.4 mph 26.5 mph N/A   Overcast
7:53 AM 39.9 °F 32.1 °F 35.1 °F 83% 30.04 in 10.0 mi NNW 13.8 mph - 0.01 in Rain Light Rain
8:53 AM 42.1 °F 34.5 °F 34.0 °F 73% 30.06 in 10.0 mi NNW 15.0 mph 21.9 mph 0.01 in Rain Light Rain
10:53 AM 37.9 °F 30.5 °F 34.0 °F 86% 30.12 in - North 11.5 mph - N/A   Unknown
11:22 AM 37.4 °F 28.5 °F 35.6 °F 93% 30.15 in 6.0 mi North 15.0 mph 19.6 mph 0.03 in Rain Light Rain
11:53 AM 37.9 °F 29.6 °F 36.0 °F 93% 30.11 in 5.0 mi North 13.8 mph 20.7 mph 0.04 in Rain Light Rain
12:16 PM 37.4 °F 29.8 °F 35.6 °F 93% 30.13 in 5.0 mi North 11.5 mph - 0.01 in Rain Light Rain
12:53 PM 37.9 °F 31.5 °F 37.0 °F 97% 30.09 in 5.0 mi NNW 9.2 mph - 0.02 in Rain Light Rain
1:00 PM 37.4 °F 29.8 °F 37.4 °F 100% 30.10 in 4.0 mi NNW 11.5 mph - 0.01 in Rain Light Rain
1:53 PM 37.9 °F 32.7 °F 37.0 °F 97% 30.06 in 4.0 mi NNW 6.9 mph - 0.09 in Rain Rain
2:13 PM 39.2 °F 33.0 °F 37.4 °F 93% 30.08 in 3.0 mi NNW 9.2 mph - N/A Rain Heavy Rain
2:21 PM 39.2 °F 32.5 °F 37.4 °F 93% 30.07 in 5.0 mi NNW 10.4 mph - N/A Rain Light Rain
2:53 PM 39.2 °F 32.0 °F 37.4 °F 93% 30.07 in 7.0 mi North 11.5 mph - N/A Rain Light Rain
3:04 PM 39.2 °F 32.5 °F 37.4 °F 93% 30.07 in 9.0 mi North 10.4 mph - 0.00 in Rain Light Rain
3:53 PM 39.9 °F 34.5 °F 39.0 °F 97% 30.03 in 5.0 mi WNW 8.1 mph - 0.07 in Rain Light Rain
4:53 PM 41.0 °F 36.4 °F 39.9 °F 96% 30.02 in 4.0 mi West 6.9 mph - 0.05 in Rain Rain
5:53 PM 42.1 °F 36.1 °F 39.9 °F 92% 30.02 in 10.0 mi WSW 10.4 mph - 0.03 in   Overcast
6:53 PM 39.9 °F 34.5 °F 39.9 °F 100% 30.03 in 10.0 mi WSW 8.1 mph - N/A   Clear
7:53 PM 39.9 °F 34.5 °F 39.0 °F 97% 30.04 in 10.0 mi WSW 8.1 mph - N/A   Clear
8:53 PM 39.0 °F 34.8 °F 39.0 °F 100% 30.03 in 10.0 mi WSW 5.8 mph - N/A   Clear
9:53 PM 37.9 °F 33.5 °F 37.9 °F 100% 30.03 in 8.0 mi SW 5.8 mph - N/A   Clear
10:53 PM 37.0 °F 34.5 °F 36.0 °F 96% 30.06 in 8.0 mi SW 3.5 mph - N/A   Clear
11:53 PM 36.0 °F 33.3 °F 36.0 °F 100% 30.05 in 6.0 mi South 3.5 mph - N/A   Clear